Regional Weather Roundup
Issued by NWS Newport/Morehead, NC

Current Version | Previous Version | Graphics & Text | Print | Product List | Glossary Off
Versions: 1 2 3 4 5 6 7 8 9 10 11 12 13 14 15 16 17 18 19 20 21 22 23 24 25 26 27 28 29 30 31 32 33 34 35 36 37 38 39 40 41 42 43 44 45 46 47 48 49 50
000 ASUS42 KMHX 152210 RWRMHX WEATHER ROUNDUP FOR EASTERN NORTH CAROLINA NATIONAL WEATHER SERVICE NEWPORT/MOREHEAD CITY NC 600 PM EDT MON SEP 15 2014 NOTE: "FAIR" INDICATES FEW OR NO CLOUDS BELOW 12,000 FEET WITH NO SIGNIFICANT WEATHER AND/OR OBSTRUCTIONS TO VISIBILITY NCZ015>017-031-032-045>047-102-103-152300- NORTH COAST CITY SKY/WX TMP DP RH WIND PRES REMARKS EDENTON LGT RAIN 73 65 76 CALM 30.13F ELIZABETH CITY CLOUDY 70 60 70 E6 30.14F KITTY HAWK CLOUDY 72 59 64 E5 30.13F MANTEO CLOUDY 71 59 65 NE8 30.14F $$ NCZ045>047-081-094-103-104-152300- CENTRAL COAST CITY SKY/WX TMP DP RH WIND PRES REMARKS FRISCO SUNNY 73 63 70 NE5 30.13F SWANQUARTER N/A 75 N/A N/A E7 30.09S $$ NCZ095-097-098-100-101-152300- SOUTHERN COAST CITY SKY/WX TMP DP RH WIND PRES REMARKS BEAUFORT PTSUNNY 77 66 68 E6 30.12F CEDAR ISLAND N/A 75 N/A N/A NE7 30.18S JACKSONVILLE MOSUNNY 75 66 73 CALM 30.12F NEWPORT NOT AVBL PINEY ISLAND MOCLDY 76 64 66 NE6 30.12F WILMINGTON MOSUNNY 75 67 76 E6 30.12F $$ NCZ011>013-027>030-043-044-078>080-089-090>093-098-152300- COASTAL PLAIN CITY SKY/WX TMP DP RH WIND PRES REMARKS AHOSKIE CLOUDY 70 65 82 CALM 30.14F CLINTON CLOUDY 74 68 81 CALM 30.13F ELIZABETHTOWN CLOUDY 75 67 76 S3 30.12F GOLDSBORO CLOUDY 74 69 82 SE3 30.11F GREENVILLE CLOUDY 73 64 73 CALM 30.14F HAVELOCK PTSUNNY 75 65 70 E5 30.13F KENANSVILLE PTSUNNY 73 65 76 CALM 30.14S KINSTON PTSUNNY 75 64 69 CALM 30.14S NEW BERN PTSUNNY 76 65 68 E3 30.14S RICHLANDS MOSUNNY 75 64 69 CALM 30.13S ROANOKE RAPIDS NOT AVBL ROCKY MOUNT CLOUDY 71 66 84 E3 30.13F WASHINGTON PTSUNNY 73 64 73 CALM 30.14S WHITEVILLE CLOUDY 74 68 81 CALM 30.12F $$ AMZ130-135-150-152-154-156-158-170-250-252-270-ANZ085-086-088-633-658-670-152300- MARINE OBSERVATIONS STATION/POSITION TIME TEMP WIND PRES WAVE SWELL AIR SEA DIR/SP/G HT/PER HT/PER (UTC) (F) (DEG/KT/KT) (MB) (FT/S) (FT/S) CHESAPEAKE LIGHT 2100 68 100/ 6/ 7 1021.8 BUOY 44014 2200 71 79 40/ 8/ 12 1020.4 2/ 8 2/ 8 DUCK 2200 71 76 80/ 4/ 7 1020.0 2E DUCK 2200 N/A 2/13 OREGON INLET 2200 72 74 20/ 7/ 9 1020.6 BUOY 44095 2200 77 N/A 3/ 8 20E OREGON INLET NOT AVBL HATTERAS CG 2200 74 77 40/ 7/ 11 1020.7 DIAMOND BUOY 2200 74 350/ 10/ 12 1019.9 4/ 8 3/ 8 CAPE LOOKOUT 2100 75 50/ 7/ 9 1020.4 BEAUFORT LAB 2200 76 79 100/ 5/ 7 1019.6 30 SE NEW RIVER 2200 76 82 50/ 8/ 10 1020.3 2/ 7 2/ 7 5 SE WRIGHTSVILL 2100 73 81 80/ 6/ 8 N/A BUOY 41002 2054 79 83 300/ 10/ 10 1018.9 3/ 5 3/ 5 BUOY 41004 2200 80 83 90/ 10/ 14 1018.9 2/ 5 2/ 9 $$

USA.gov is the U.S. government's official web portal to all federal, state and local government web resources and services.